Location: Ethel Rock
(53.4667°N, 4.5667°W)
Time: 04:36:09
(UTC+00:00)

Geosat - Pass Details

Date: 24 October 2020
Orbit: 763 x 766 km, 108.0° (Epoch: 25 November)

Event Time Altitude Azimuth Distance (km) Brightness Sun altitude
Rises 03:53:11 0° 142° (SE) 3,219 7.4 -28.5°
Reaches altitude 10° 03:55:27 10° 141° (SE) 2,297 6.7 -28.2°
Maximum altitude 04:00:28 81° 55° (NE) 781 4.0 -27.5°
Enters shadow 04:00:31 81° 43° (NE) 781 4.0 -27.5°
